AAL2105 KCLT-KMSP

Flight info

Callsign AAL2105
Flight time 2h 15m
Altitude 34000
Route JOJJO5 DOOGE Q93 HEVAN/N0462F360 COLNO KAMMA KKILR3
Aircraft A320/M-SDE3FGHIRWY/LB1

Departure

Time 2026-05-06 16:10
Airport Charlotte Douglas International Airport (KCLT)

Arrival

Time 2026-05-06 18:25
Airport Minneapolis–Saint Paul International Airport / Wold–Chamberlain Field (KMSP)
Time Latitude Longitude Altitude Speed Heading
2026-05-06 15:39 35.21971 -80.94224 732 ft 0 kts 282°
2026-05-06 15:46 35.21970 -80.94224 732 ft 0 kts 282°
2026-05-06 15:57 35.21970 -80.94223 732 ft 0 kts 282°
2026-05-06 15:57 35.21968 -80.94208 732 ft 3 kts 282°
2026-05-06 15:58 35.21963 -80.94184 731 ft 3 kts 282°
2026-05-06 15:58 35.21959 -80.94160 730 ft 3 kts 286°
2026-05-06 15:58 35.21953 -80.94136 731 ft 3 kts 285°
2026-05-06 15:58 35.21948 -80.94112 730 ft 3 kts 274°
2026-05-06 15:59 35.21948 -80.94098 722 ft 2 kts 268°
2026-05-06 15:59 35.21947 -80.94077 733 ft 3 kts 296°
2026-05-06 15:59 35.21937 -80.94062 730 ft 3 kts
2026-05-06 15:59 35.21921 -80.94068 733 ft 3 kts 52°
2026-05-06 16:00 35.21915 -80.94083 732 ft 1 kts 85°
2026-05-06 16:00 35.21913 -80.94101 732 ft 3 kts 85°
2026-05-06 16:00 35.21913 -80.94111 732 ft 0 kts 85°
2026-05-06 16:02 35.21910 -80.94085 732 ft 15 kts 111°
2026-05-06 16:02 35.21837 -80.94037 731 ft 16 kts 162°
2026-05-06 16:02 35.21719 -80.94125 732 ft 17 kts 229°
2026-05-06 16:03 35.21674 -80.94202 732 ft 17 kts 248°
2026-05-06 16:03 35.21667 -80.94383 732 ft 14 kts 250°
2026-05-06 16:03 35.21630 -80.94498 732 ft 15 kts 261°
2026-05-06 16:03 35.21622 -80.94587 732 ft 16 kts 266°
2026-05-06 16:04 35.21613 -80.94771 732 ft 17 kts 267°
2026-05-06 16:04 35.21610 -80.94868 732 ft 16 kts 270°
2026-05-06 16:04 35.21681 -80.94939 733 ft 15 kts 349°
2026-05-06 16:04 35.21758 -80.95015 732 ft 15 kts 318°
2026-05-06 16:05 35.21858 -80.95045 734 ft 16 kts 356°
2026-05-06 16:05 35.21971 -80.95055 734 ft 17 kts 355°
2026-05-06 16:05 35.22092 -80.95065 734 ft 18 kts 356°
2026-05-06 16:05 35.22225 -80.95077 734 ft 20 kts 354°
2026-05-06 16:06 35.22356 -80.95089 734 ft 19 kts 357°
2026-05-06 16:06 35.22492 -80.95102 733 ft 20 kts 356°
2026-05-06 16:06 35.22631 -80.95111 733 ft 17 kts 357°
2026-05-06 16:06 35.22719 -80.95130 733 ft 10 kts 322°
2026-05-06 16:07 35.22731 -80.95188 735 ft 0 kts 265°
2026-05-06 16:08 35.22726 -80.95253 738 ft 9 kts 263°
2026-05-06 16:09 35.22702 -80.95305 739 ft 7 kts 217°
2026-05-06 16:09 35.22590 -80.95308 740 ft 41 kts 176°
2026-05-06 16:09 35.22076 -80.95264 742 ft 110 kts 175°
2026-05-06 16:09 35.21100 -80.95191 746 ft 168 kts 182°
2026-05-06 16:10 35.19851 -80.95186 1225 ft 184 kts 185°
2026-05-06 16:10 35.18667 -80.95634 1989 ft 182 kts 217°
2026-05-06 16:10 35.17896 -80.96951 2188 ft 207 kts 253°
2026-05-06 16:10 35.17933 -80.98789 2617 ft 229 kts 283°
2026-05-06 16:11 35.18492 -81.00607 3524 ft 230 kts 287°
2026-05-06 16:11 35.19424 -81.02246 4320 ft 244 kts 311°
2026-05-06 16:11 35.20717 -81.03594 5047 ft 250 kts 314°
2026-05-06 16:11 35.22064 -81.04952 5832 ft 252 kts 315°
2026-05-06 16:12 35.23432 -81.06324 6528 ft 260 kts 314°
2026-05-06 16:12 35.24853 -81.07754 7149 ft 267 kts 314°
2026-05-06 16:12 35.26296 -81.09206 7885 ft 269 kts 314°
2026-05-06 16:12 35.27747 -81.10672 8649 ft 271 kts 313°
2026-05-06 16:13 35.29203 -81.12152 9415 ft 273 kts 312°
2026-05-06 16:13 35.30669 -81.13648 10139 ft 275 kts 312°
2026-05-06 16:13 35.32145 -81.15154 10809 ft 278 kts 312°
2026-05-06 16:13 35.33633 -81.16673 11467 ft 280 kts 312°
2026-05-06 16:14 35.35135 -81.18207 12136 ft 282 kts 313°
2026-05-06 16:14 35.36647 -81.19751 12798 ft 284 kts 313°
2026-05-06 16:14 35.38175 -81.21310 13467 ft 287 kts 313°
2026-05-06 16:14 35.39742 -81.22913 13778 ft 303 kts 314°
2026-05-06 16:15 35.41410 -81.24623 13953 ft 320 kts 314°
2026-05-06 16:15 35.43135 -81.26389 14407 ft 326 kts 314°
2026-05-06 16:15 35.44732 -81.28349 14947 ft 324 kts 304°
2026-05-06 16:15 35.46056 -81.30570 15507 ft 324 kts 301°
2026-05-06 16:16 35.47363 -81.32839 16057 ft 327 kts 301°
2026-05-06 16:16 35.48676 -81.35124 16603 ft 329 kts 302°
2026-05-06 16:16 35.50002 -81.37431 17146 ft 332 kts 302°
2026-05-06 16:16 35.51322 -81.39722 17685 ft 334 kts 302°
2026-05-06 16:17 35.52672 -81.42070 18229 ft 338 kts 302°
2026-05-06 16:17 35.54027 -81.44437 18709 ft 340 kts 302°
2026-05-06 16:17 35.55518 -81.46721 19197 ft 346 kts 310°
2026-05-06 16:17 35.57359 -81.48666 19681 ft 353 kts 320°
2026-05-06 16:18 35.59362 -81.50440 20181 ft 356 kts 319°
2026-05-06 16:18 35.61374 -81.52229 20677 ft 359 kts 319°
2026-05-06 16:18 35.63402 -81.54037 21158 ft 361 kts 319°
2026-05-06 16:18 35.65442 -81.55853 21645 ft 363 kts 319°
2026-05-06 16:19 35.67505 -81.57670 22165 ft 366 kts 319°
2026-05-06 16:19 35.69588 -81.59490 22648 ft 368 kts 319°
2026-05-06 16:19 35.71689 -81.61318 23128 ft 371 kts 319°
2026-05-06 16:19 35.73805 -81.63160 23607 ft 374 kts 319°
2026-05-06 16:20 35.75934 -81.65015 23999 ft 376 kts 319°
2026-05-06 16:20 35.78079 -81.66889 24389 ft 378 kts 319°
2026-05-06 16:20 35.80232 -81.68776 24715 ft 383 kts 319°
2026-05-06 16:20 35.82427 -81.70708 24827 ft 392 kts 319°
2026-05-06 16:21 35.84670 -81.72684 24945 ft 401 kts 319°
2026-05-06 16:21 35.86960 -81.74703 25055 ft 409 kts 319°
2026-05-06 16:21 35.89298 -81.76760 25163 ft 416 kts 319°
2026-05-06 16:21 35.91637 -81.78822 25272 ft 422 kts 319°
2026-05-06 16:22 35.94047 -81.80949 25381 ft 429 kts 319°
2026-05-06 16:22 35.96492 -81.83102 25488 ft 435 kts 319°
2026-05-06 16:22 35.98963 -81.85276 25621 ft 439 kts 319°
2026-05-06 16:22 36.01459 -81.87469 25844 ft 440 kts 319°
2026-05-06 16:23 36.03946 -81.89656 26181 ft 439 kts 319°
2026-05-06 16:23 36.06432 -81.91852 26542 ft 438 kts 319°
2026-05-06 16:23 36.08902 -81.94044 26913 ft 437 kts 319°
2026-05-06 16:23 36.11366 -81.96234 27299 ft 436 kts 318°
2026-05-06 16:24 36.13827 -81.98420 27696 ft 435 kts 318°
2026-05-06 16:24 36.16277 -82.00591 28079 ft 433 kts 318°
2026-05-06 16:24 36.18728 -82.02762 28458 ft 432 kts 318°
2026-05-06 16:24 36.21168 -82.04929 28858 ft 431 kts 318°
2026-05-06 16:25 36.23604 -82.07097 29281 ft 430 kts 318°
2026-05-06 16:25 36.26031 -82.09259 29712 ft 429 kts 318°
2026-05-06 16:25 36.28448 -82.11413 30138 ft 428 kts 317°
2026-05-06 16:25 36.30858 -82.13560 30532 ft 425 kts 317°
2026-05-06 16:26 36.33247 -82.15688 30965 ft 421 kts 317°
2026-05-06 16:26 36.35615 -82.17799 31432 ft 417 kts 317°
2026-05-06 16:26 36.37962 -82.19896 31909 ft 413 kts 317°
2026-05-06 16:26 36.40276 -82.21965 32405 ft 408 kts 317°
2026-05-06 16:27 36.42565 -82.24013 32929 ft 403 kts 316°
2026-05-06 16:27 36.44823 -82.26034 33449 ft 398 kts 316°
2026-05-06 16:27 36.47056 -82.28036 33905 ft 395 kts 316°
2026-05-06 16:27 36.49272 -82.30026 34010 ft 391 kts 316°
2026-05-06 16:28 36.53664 -82.33971 34029 ft 388 kts 316°
2026-05-06 16:28 36.58007 -82.37882 34012 ft 388 kts 316°
2026-05-06 16:29 36.62368 -82.41807 34000 ft 387 kts 316°
2026-05-06 16:29 36.66730 -82.45743 33984 ft 387 kts 316°
2026-05-06 16:30 36.70380 -82.49040 33982 ft 387 kts 316°
2026-05-06 16:30 36.75435 -82.53620 33979 ft 387 kts 316°
2026-05-06 16:31 36.79789 -82.57563 33995 ft 386 kts 316°
2026-05-06 16:31 36.84096 -82.61544 33999 ft 384 kts 314°
2026-05-06 16:32 36.88302 -82.65644 34011 ft 383 kts 314°
2026-05-06 16:32 36.92493 -82.69766 34006 ft 384 kts 314°
2026-05-06 16:33 36.96707 -82.73874 34006 ft 384 kts 314°
2026-05-06 16:34 37.03031 -82.80011 33990 ft 384 kts 314°
2026-05-06 16:34 37.07217 -82.84087 33967 ft 384 kts 314°
2026-05-06 16:35 37.11390 -82.88261 33915 ft 384 kts 312°
2026-05-06 16:35 37.15502 -82.92573 33880 ft 387 kts 312°
2026-05-06 16:36 37.19636 -82.96936 33907 ft 389 kts 312°
2026-05-06 16:36 37.23793 -83.01297 33920 ft 390 kts 312°
2026-05-06 16:37 37.27995 -83.05622 33955 ft 391 kts 313°
2026-05-06 16:37 37.32277 -83.09830 33977 ft 391 kts 314°
2026-05-06 16:38 37.36572 -83.14014 33998 ft 390 kts 314°
2026-05-06 16:38 37.40828 -83.18217 34001 ft 388 kts 313°
2026-05-06 16:39 37.45051 -83.22433 34014 ft 387 kts 313°
2026-05-06 16:39 37.49270 -83.26632 34007 ft 386 kts 313°
2026-05-06 16:40 37.53474 -83.30826 34014 ft 385 kts 313°
2026-05-06 16:40 37.57637 -83.34987 34003 ft 384 kts 313°
2026-05-06 16:41 37.61825 -83.39166 34009 ft 384 kts 313°
2026-05-06 16:41 37.66002 -83.43350 34000 ft 383 kts 313°
2026-05-06 16:42 37.70188 -83.47547 33994 ft 383 kts 313°
2026-05-06 16:42 37.74336 -83.51726 33986 ft 383 kts 313°
2026-05-06 16:43 37.78517 -83.55925 33980 ft 383 kts 313°
2026-05-06 16:43 37.82686 -83.60123 33964 ft 383 kts 313°
2026-05-06 16:44 37.86858 -83.64330 33976 ft 383 kts 313°
2026-05-06 16:44 37.90996 -83.68514 33982 ft 383 kts 312°
2026-05-06 16:45 37.95159 -83.72726 34005 ft 383 kts 312°
2026-05-06 16:45 37.99322 -83.76941 34015 ft 383 kts 312°
2026-05-06 16:46 38.03485 -83.81170 34031 ft 383 kts 312°
2026-05-06 16:46 38.07639 -83.85391 34036 ft 382 kts 312°
2026-05-06 16:47 38.11789 -83.89617 34039 ft 382 kts 312°
2026-05-06 16:47 38.15934 -83.93840 34033 ft 382 kts 312°
2026-05-06 16:48 38.20077 -83.98071 34024 ft 382 kts 312°
2026-05-06 16:48 38.24218 -84.02315 34018 ft 382 kts 312°
2026-05-06 16:49 38.28332 -84.06524 34021 ft 382 kts 312°
2026-05-06 16:49 38.32474 -84.10759 34009 ft 382 kts 312°
2026-05-06 16:50 38.36605 -84.15003 34006 ft 382 kts 312°
2026-05-06 16:50 38.40737 -84.19257 33996 ft 382 kts 312°
2026-05-06 16:51 38.44946 -84.23417 33999 ft 384 kts 313°
2026-05-06 16:51 38.49216 -84.27534 34003 ft 384 kts 313°
2026-05-06 16:52 38.53472 -84.31656 34006 ft 384 kts 313°
2026-05-06 16:52 38.57706 -84.35802 33997 ft 383 kts 313°
2026-05-06 16:53 38.61933 -84.39960 33995 ft 384 kts 313°
2026-05-06 16:53 38.66173 -84.44124 33990 ft 384 kts 313°
2026-05-06 16:54 38.70411 -84.48298 33991 ft 384 kts 313°
2026-05-06 16:54 38.74620 -84.52454 33992 ft 385 kts 313°
2026-05-06 16:55 38.78859 -84.56644 33998 ft 385 kts 313°
2026-05-06 16:55 38.83110 -84.60839 33998 ft 386 kts 313°
2026-05-06 16:56 38.87357 -84.65049 34009 ft 386 kts 313°
2026-05-06 16:56 38.91597 -84.69268 34012 ft 386 kts 313°
2026-05-06 16:57 38.95849 -84.73493 34018 ft 387 kts 313°
2026-05-06 16:57 38.99389 -84.77008 34018 ft 387 kts 313°
2026-05-06 16:58 39.03646 -84.81248 34022 ft 387 kts 313°
2026-05-06 16:58 39.07895 -84.85495 34023 ft 387 kts 313°
2026-05-06 16:59 39.12150 -84.89753 34021 ft 387 kts 313°
2026-05-06 16:59 39.16399 -84.94013 34011 ft 387 kts 313°
2026-05-06 17:00 39.20652 -84.98273 34023 ft 387 kts 313°
2026-05-06 17:00 39.24908 -85.02549 34030 ft 388 kts 313°
2026-05-06 17:01 39.29164 -85.06836 34038 ft 388 kts 313°
2026-05-06 17:01 39.33427 -85.11124 34038 ft 389 kts 313°
2026-05-06 17:02 39.37695 -85.15360 34044 ft 391 kts 315°
2026-05-06 17:02 39.42113 -85.19486 34045 ft 392 kts 316°
2026-05-06 17:03 39.46557 -85.23590 34042 ft 393 kts 315°
2026-05-06 17:03 39.50990 -85.27729 34036 ft 393 kts 315°
2026-05-06 17:04 39.55405 -85.31899 34030 ft 393 kts 315°
2026-05-06 17:04 39.59824 -85.36085 34030 ft 394 kts 315°
2026-05-06 17:05 39.64252 -85.40269 34015 ft 394 kts 315°
2026-05-06 17:05 39.68703 -85.44486 34021 ft 397 kts 315°
2026-05-06 17:06 39.73175 -85.48728 34023 ft 398 kts 315°
2026-05-06 17:06 39.77648 -85.52982 34021 ft 399 kts 315°
2026-05-06 17:07 39.82106 -85.57226 34028 ft 400 kts 315°
2026-05-06 17:07 39.86603 -85.61507 34031 ft 400 kts 315°
2026-05-06 17:08 39.91096 -85.65802 34040 ft 401 kts 314°
2026-05-06 17:08 39.95589 -85.70104 34042 ft 401 kts 314°
2026-05-06 17:09 40.00091 -85.74421 34044 ft 401 kts 314°
2026-05-06 17:09 40.04594 -85.78736 34051 ft 402 kts 314°
2026-05-06 17:10 40.09093 -85.83072 34054 ft 402 kts 314°
2026-05-06 17:10 40.13603 -85.87417 34052 ft 403 kts 314°
2026-05-06 17:11 40.18086 -85.91741 34054 ft 403 kts 314°
2026-05-06 17:11 40.22592 -85.96098 34083 ft 403 kts 314°
2026-05-06 17:12 40.27100 -86.00468 34094 ft 403 kts 314°
2026-05-06 17:12 40.31613 -86.04846 34094 ft 404 kts 314°
2026-05-06 17:13 40.36139 -86.09228 34055 ft 404 kts 314°
2026-05-06 17:13 40.40654 -86.13617 34044 ft 404 kts 313°
2026-05-06 17:14 40.45170 -86.18020 34049 ft 405 kts 313°
2026-05-06 17:14 40.49697 -86.22442 34049 ft 406 kts 313°
2026-05-06 17:15 40.54228 -86.26881 34025 ft 407 kts 313°
2026-05-06 17:15 40.58771 -86.31328 34050 ft 408 kts 313°
2026-05-06 17:16 40.63298 -86.35769 34054 ft 408 kts 313°
2026-05-06 17:16 40.67852 -86.40250 34058 ft 409 kts 313°
2026-05-06 17:17 40.72400 -86.44737 34065 ft 409 kts 313°
2026-05-06 17:17 40.76958 -86.49225 34069 ft 409 kts 313°
2026-05-06 17:18 40.81513 -86.53716 34070 ft 408 kts 313°
2026-05-06 17:18 40.86057 -86.58212 34068 ft 407 kts 313°
2026-05-06 17:19 40.90584 -86.62704 34070 ft 407 kts 312°
2026-05-06 17:19 40.95093 -86.67190 34065 ft 405 kts 312°
2026-05-06 17:20 40.99591 -86.71670 34069 ft 404 kts 312°
2026-05-06 17:20 41.04071 -86.76140 34068 ft 402 kts 312°
2026-05-06 17:21 41.08533 -86.80594 34071 ft 401 kts 312°
2026-05-06 17:21 41.12982 -86.85038 34078 ft 399 kts 312°
2026-05-06 17:22 41.17409 -86.89475 34065 ft 398 kts 312°
2026-05-06 17:22 41.21820 -86.93907 34065 ft 397 kts 311°
2026-05-06 17:23 41.26224 -86.98335 34074 ft 397 kts 311°
2026-05-06 17:23 41.30613 -87.02763 34071 ft 396 kts 311°
2026-05-06 17:24 41.34972 -87.07164 34074 ft 395 kts 311°
2026-05-06 17:24 41.39351 -87.11589 34077 ft 395 kts 311°
2026-05-06 17:25 41.43720 -87.16015 34078 ft 394 kts 311°
2026-05-06 17:25 41.48079 -87.20444 34079 ft 394 kts 311°
2026-05-06 17:26 41.52896 -87.24246 34081 ft 411 kts 321°
2026-05-06 17:26 41.58056 -87.27524 34082 ft 411 kts 321°
2026-05-06 17:27 41.63221 -87.30810 34079 ft 411 kts 321°
2026-05-06 17:27 41.68364 -87.34114 34083 ft 410 kts 321°
2026-05-06 17:28 41.73508 -87.37429 34086 ft 411 kts 321°
2026-05-06 17:28 41.78658 -87.40747 34080 ft 411 kts 321°
2026-05-06 17:29 41.83815 -87.44058 34082 ft 411 kts 321°
2026-05-06 17:29 41.88944 -87.47362 34075 ft 411 kts 321°
2026-05-06 17:30 41.94108 -87.50703 34071 ft 412 kts 321°
2026-05-06 17:30 41.99258 -87.54050 34064 ft 412 kts 321°
2026-05-06 17:31 42.04428 -87.57410 34067 ft 413 kts 321°
2026-05-06 17:31 42.09454 -87.60681 34059 ft 413 kts 321°
2026-05-06 17:32 42.14628 -87.64055 34060 ft 414 kts 321°
2026-05-06 17:32 42.19775 -87.67418 34066 ft 414 kts 322°
2026-05-06 17:33 42.24971 -87.70820 34068 ft 414 kts 322°
2026-05-06 17:33 42.30157 -87.74217 34046 ft 415 kts 322°
2026-05-06 17:34 42.35345 -87.77624 34051 ft 415 kts 322°
2026-05-06 17:34 42.40541 -87.81040 34039 ft 415 kts 322°
2026-05-06 17:35 42.45735 -87.84483 34034 ft 415 kts 322°
2026-05-06 17:35 42.50935 -87.87919 34027 ft 416 kts 322°
2026-05-06 17:36 42.58731 -87.93049 34036 ft 417 kts 322°
2026-05-06 17:36 42.63953 -87.96512 34028 ft 418 kts 322°
2026-05-06 17:37 42.69187 -87.99996 34020 ft 419 kts 322°
2026-05-06 17:37 42.74433 -88.03492 34023 ft 420 kts 322°
2026-05-06 17:38 42.79692 -88.06998 34026 ft 422 kts 322°
2026-05-06 17:38 42.84965 -88.10521 34017 ft 422 kts 322°
2026-05-06 17:39 42.90246 -88.14054 34027 ft 423 kts 322°
2026-05-06 17:39 42.95530 -88.17606 34037 ft 424 kts 322°
2026-05-06 17:40 43.00792 -88.21147 34041 ft 425 kts 322°
2026-05-06 17:40 43.06138 -88.24748 34020 ft 430 kts 323°
2026-05-06 17:41 43.11279 -88.28737 34018 ft 415 kts 311°
2026-05-06 17:41 43.13371 -88.31368 34016 ft 404 kts 303°
2026-05-06 17:41 43.15140 -88.34308 34021 ft 400 kts 300°
2026-05-06 17:42 43.18625 -88.40258 34014 ft 401 kts 300°
2026-05-06 17:42 43.22126 -88.46219 34021 ft 401 kts 300°
2026-05-06 17:43 43.25623 -88.52198 34020 ft 402 kts 300°
2026-05-06 17:43 43.29114 -88.58190 34027 ft 402 kts 300°
2026-05-06 17:44 43.32604 -88.64182 34029 ft 402 kts 300°
2026-05-06 17:44 43.36091 -88.70185 34023 ft 402 kts 300°
2026-05-06 17:45 43.39559 -88.76155 34033 ft 402 kts 300°
2026-05-06 17:45 43.43068 -88.82215 34036 ft 402 kts 300°
2026-05-06 17:46 43.46546 -88.88246 34039 ft 402 kts 300°
2026-05-06 17:46 43.49996 -88.94243 34045 ft 402 kts 300°
2026-05-06 17:47 43.53452 -89.00255 34043 ft 402 kts 300°
2026-05-06 17:47 43.56924 -89.06302 34041 ft 402 kts 300°
2026-05-06 17:48 43.60399 -89.12374 34041 ft 403 kts 300°
2026-05-06 17:48 43.63872 -89.18445 34043 ft 403 kts 300°
2026-05-06 17:49 43.66755 -89.23500 34044 ft 403 kts 300°
2026-05-06 17:49 43.70225 -89.29595 34043 ft 404 kts 300°
2026-05-06 17:50 43.73690 -89.35698 34042 ft 404 kts 300°
2026-05-06 17:50 43.77159 -89.41828 34042 ft 404 kts 300°
2026-05-06 17:51 43.80633 -89.47960 34042 ft 405 kts 300°
2026-05-06 17:51 43.84104 -89.54108 34040 ft 406 kts 300°
2026-05-06 17:52 43.87580 -89.60283 34043 ft 406 kts 300°
2026-05-06 17:52 43.91063 -89.66465 34044 ft 407 kts 301°
2026-05-06 17:53 43.94519 -89.72620 34041 ft 408 kts 301°
2026-05-06 17:53 43.97997 -89.78846 34051 ft 409 kts 301°
2026-05-06 17:54 44.01480 -89.85097 34045 ft 410 kts 301°
2026-05-06 17:54 44.04970 -89.91365 34045 ft 410 kts 301°
2026-05-06 17:55 44.08476 -89.97644 34038 ft 411 kts 302°
2026-05-06 17:55 44.12076 -90.03826 33372 ft 411 kts 302°
2026-05-06 17:56 44.13898 -90.06895 32562 ft 412 kts 302°
2026-05-06 17:56 44.15723 -90.09967 31789 ft 411 kts 302°
2026-05-06 17:56 44.17540 -90.13042 31015 ft 411 kts 302°
2026-05-06 17:56 44.19347 -90.16120 30243 ft 411 kts 302°
2026-05-06 17:57 44.21148 -90.19205 29387 ft 410 kts 302°
2026-05-06 17:57 44.22942 -90.22288 29098 ft 410 kts 302°
2026-05-06 17:57 44.26531 -90.28482 29054 ft 412 kts 302°
2026-05-06 17:58 44.30146 -90.34702 29058 ft 413 kts 302°
2026-05-06 17:58 44.33733 -90.40984 29060 ft 411 kts 298°
2026-05-06 17:59 44.36322 -90.47917 29068 ft 403 kts 288°
2026-05-06 17:59 44.38460 -90.55168 29076 ft 404 kts 288°
2026-05-06 18:00 44.40614 -90.62448 29067 ft 405 kts 288°
2026-05-06 18:00 44.42767 -90.69734 29072 ft 406 kts 288°
2026-05-06 18:01 44.44923 -90.77034 29075 ft 406 kts 288°
2026-05-06 18:01 44.47088 -90.84341 28887 ft 403 kts 288°
2026-05-06 18:02 44.48153 -90.87946 28174 ft 399 kts 288°
2026-05-06 18:02 44.49205 -90.91523 27463 ft 395 kts 288°
2026-05-06 18:02 44.50246 -90.95073 26790 ft 392 kts 288°
2026-05-06 18:02 44.51275 -90.98587 26142 ft 388 kts 288°
2026-05-06 18:03 44.52280 -91.02034 25514 ft 385 kts 288°
2026-05-06 18:03 44.53304 -91.05538 24896 ft 382 kts 289°
2026-05-06 18:03 44.54294 -91.08928 24336 ft 380 kts 289°
2026-05-06 18:03 44.55305 -91.12390 24106 ft 380 kts 289°
2026-05-06 18:04 44.56293 -91.15781 24070 ft 381 kts 289°
2026-05-06 18:04 44.57295 -91.19225 24084 ft 382 kts 289°
2026-05-06 18:04 44.58294 -91.22675 24081 ft 382 kts 289°
2026-05-06 18:04 44.59293 -91.26131 24078 ft 382 kts 289°
2026-05-06 18:05 44.60291 -91.29580 24079 ft 382 kts 289°
2026-05-06 18:05 44.61292 -91.33041 24069 ft 382 kts 289°
2026-05-06 18:05 44.62280 -91.36460 23863 ft 371 kts 289°
2026-05-06 18:05 44.63234 -91.39768 23724 ft 358 kts 289°
2026-05-06 18:06 44.64159 -91.42978 23409 ft 352 kts 289°
2026-05-06 18:06 44.65072 -91.46147 22973 ft 349 kts 289°
2026-05-06 18:06 44.65978 -91.49300 22501 ft 347 kts 289°
2026-05-06 18:06 44.66878 -91.52434 22021 ft 345 kts 290°
2026-05-06 18:07 44.67772 -91.55546 21551 ft 342 kts 290°
2026-05-06 18:07 44.68649 -91.58600 21086 ft 340 kts 290°
2026-05-06 18:07 44.69531 -91.61674 20619 ft 338 kts 290°
2026-05-06 18:07 44.70407 -91.64729 20148 ft 336 kts 290°
2026-05-06 18:08 44.71280 -91.67773 19669 ft 334 kts 290°
2026-05-06 18:08 44.72144 -91.70793 19217 ft 332 kts 290°
2026-05-06 18:08 44.73002 -91.73806 18744 ft 330 kts 290°
2026-05-06 18:08 44.73854 -91.76795 18271 ft 329 kts 290°
2026-05-06 18:09 44.74700 -91.79775 17756 ft 327 kts 290°
2026-05-06 18:09 44.75535 -91.82730 17255 ft 324 kts 290°
2026-05-06 18:09 44.76365 -91.85677 16747 ft 322 kts 290°
2026-05-06 18:09 44.77187 -91.88596 16261 ft 320 kts 290°
2026-05-06 18:10 44.77992 -91.91512 15788 ft 318 kts 290°
2026-05-06 18:10 44.78783 -91.94414 15319 ft 317 kts 290°
2026-05-06 18:10 44.79562 -91.97298 14858 ft 315 kts 290°
2026-05-06 18:10 44.80340 -92.00179 14399 ft 313 kts 290°
2026-05-06 18:11 44.81112 -92.03035 13954 ft 312 kts 290°
2026-05-06 18:11 44.81883 -92.05886 13453 ft 310 kts 290°
2026-05-06 18:11 44.82648 -92.08719 12960 ft 309 kts 290°
2026-05-06 18:11 44.83405 -92.11539 12481 ft 307 kts 290°
2026-05-06 18:12 44.84158 -92.14339 12013 ft 305 kts 291°
2026-05-06 18:12 44.84904 -92.17129 11553 ft 304 kts 289°
2026-05-06 18:12 44.85382 -92.19979 11118 ft 302 kts 278°
2026-05-06 18:12 44.85561 -92.22926 10678 ft 301 kts 276°
2026-05-06 18:13 44.85735 -92.25888 10252 ft 300 kts 276°
2026-05-06 18:13 44.85912 -92.28770 10000 ft 297 kts 276°
2026-05-06 18:13 44.86092 -92.31683 10000 ft 300 kts 276°
2026-05-06 18:13 44.86262 -92.34615 10005 ft 300 kts 276°
2026-05-06 18:14 44.86406 -92.37482 9998 ft 285 kts 275°
2026-05-06 18:14 44.86534 -92.40202 9994 ft 271 kts 275°
2026-05-06 18:14 44.86655 -92.42818 9788 ft 264 kts 275°
2026-05-06 18:14 44.86772 -92.45354 9646 ft 255 kts 275°
2026-05-06 18:15 44.86764 -92.47824 9412 ft 252 kts 264°
2026-05-06 18:15 44.86334 -92.50210 9091 ft 253 kts 251°
2026-05-06 18:15 44.85549 -92.52461 8680 ft 257 kts 246°
2026-05-06 18:15 44.84725 -92.54703 8278 ft 259 kts 246°
2026-05-06 18:16 44.83893 -92.56970 7883 ft 261 kts 246°
2026-05-06 18:16 44.83062 -92.59229 7633 ft 258 kts 246°
2026-05-06 18:16 44.82244 -92.61461 7401 ft 254 kts 246°
2026-05-06 18:16 44.81438 -92.63654 7162 ft 250 kts 246°
2026-05-06 18:17 44.80648 -92.65804 7023 ft 243 kts 246°
2026-05-06 18:17 44.79892 -92.67863 6993 ft 231 kts 246°
2026-05-06 18:17 44.79164 -92.69839 6872 ft 223 kts 246°
2026-05-06 18:17 44.78461 -92.71750 6723 ft 217 kts 246°
2026-05-06 18:18 44.77774 -92.73620 6515 ft 214 kts 246°
2026-05-06 18:18 44.77271 -92.75560 6237 ft 209 kts 262°
2026-05-06 18:18 44.77110 -92.77584 5926 ft 208 kts 269°
2026-05-06 18:18 44.77033 -92.79612 5653 ft 207 kts 269°
2026-05-06 18:19 44.76967 -92.81626 5376 ft 205 kts 269°
2026-05-06 18:19 44.76907 -92.83626 5069 ft 205 kts 269°
2026-05-06 18:19 44.76848 -92.85628 4809 ft 204 kts 269°
2026-05-06 18:19 44.76789 -92.87607 4541 ft 202 kts 269°
2026-05-06 18:20 44.76731 -92.89559 4238 ft 202 kts 269°
2026-05-06 18:20 44.76673 -92.91545 4027 ft 201 kts 269°
2026-05-06 18:20 44.76618 -92.93489 4011 ft 202 kts 269°
2026-05-06 18:20 44.76724 -92.95442 4009 ft 201 kts 288°
2026-05-06 18:21 44.77357 -92.97191 4015 ft 201 kts 301°
2026-05-06 18:21 44.78097 -92.98868 4008 ft 201 kts 301°
2026-05-06 18:21 44.78834 -93.00547 4009 ft 201 kts 301°
2026-05-06 18:21 44.79569 -93.02227 3867 ft 201 kts 300°
2026-05-06 18:22 44.80299 -93.03900 3631 ft 200 kts 300°
2026-05-06 18:22 44.81028 -93.05573 3361 ft 200 kts 301°
2026-05-06 18:22 44.81754 -93.07237 3083 ft 199 kts 301°
2026-05-06 18:22 44.82474 -93.08892 2813 ft 196 kts 300°
2026-05-06 18:23 44.83170 -93.10489 2543 ft 187 kts 300°
2026-05-06 18:23 44.83831 -93.12008 2314 ft 175 kts 300°
2026-05-06 18:23 44.84450 -93.13431 2054 ft 165 kts 300°
2026-05-06 18:23 44.85034 -93.14777 1785 ft 156 kts 300°
2026-05-06 18:24 44.85577 -93.16027 1546 ft 143 kts 301°
2026-05-06 18:24 44.86072 -93.17166 1355 ft 132 kts 301°
2026-05-06 18:24 44.86549 -93.18265 1170 ft 131 kts 302°
2026-05-06 18:24 44.87026 -93.19367 990 ft 133 kts 301°
2026-05-06 18:25 44.87497 -93.20478 838 ft 128 kts 300°
2026-05-06 18:25 44.87898 -93.21394 833 ft 82 kts 302°
2026-05-06 18:25 44.88066 -93.21768 831 ft 30 kts 303°
2026-05-06 18:25 44.88183 -93.21985 841 ft 21 kts 329°
2026-05-06 18:26 44.88253 -93.21988 835 ft 0 kts 26°
2026-05-06 18:27 44.88253 -93.21987 836 ft 0 kts 26°
2026-05-06 18:27 44.88273 -93.21973 838 ft 11 kts 28°
2026-05-06 18:27 44.88347 -93.21895 842 ft 14 kts 42°
2026-05-06 18:28 44.88426 -93.21792 839 ft 17 kts 44°
2026-05-06 18:28 44.88510 -93.21670 840 ft 18 kts 46°
2026-05-06 18:28 44.88601 -93.21544 839 ft 19 kts 43°
2026-05-06 18:28 44.88688 -93.21411 837 ft 11 kts 66°
2026-05-06 18:29 44.88664 -93.21358 838 ft 8 kts 168°
2026-05-06 18:29 44.88619 -93.21347 839 ft 0 kts 165°